User: anonymous   Login
Location: ROBOsky.com Wild Flower Ridge Observatory
(43.9736°N, 79.9739°W)
Time: 23:29:59
(UTC-05:00)
Language:

Cosmos 1190 Rocket - Orbit

View from above orbital plane
View from above orbital plane
View from above satellite
View from above satellite

Ground track
Ground track

The orbit data is extracted from the following two-line orbital elements,

1 11870U 80056B   18021.49392349 +.00000089 +00000-0 +38991-4 0  9992
2 11870 074.0521 166.7577 0015396 063.6052 296.6679 14.36881681942324
Epoch (UTC): 21 January 2018 11:51:14
Eccentricity: 0.0015396
inclination: 74.0521°
perigee height: 758 km
apogee height: 780 km
right ascension of ascending node: 166.7577°
argument of perigee: 63.6052°
revolutions per day: 14.36881681
mean anomaly at epoch: 296.6679°
orbit number at epoch: 94232

The dashed part of the orbit path shows where the satellite is in the earth's shadow,  

DLR